Regional Weather Roundup
Issued by NWS

Home | Current Version | Previous Version | Graphics & Text | Print | Product List | Glossary Off
Versions: 1 2 3 4 5 6 7 8 9 10 11 12 13 14 15 16 17 18 19 20 21 22 23 24 25 26 27 28 29 30 31 32 33 34 35 36 37 38 39 40 41 42 43 44 45 46 47 48 49 50

000
ASUS43 KTOP 020608
RWRKS

WEATHER ROUNDUP FOR KANSAS
NATIONAL WEATHER SERVICE GOODLAND KS
100 AM CDT THU OCT 02 2014

NOTE:  "FAIR" INDICATES FEW OR NO CLOUDS BELOW 12,000 FEET WITH NO
SIGNIFICANT WEATHER AND/OR OBSTRUCTIONS TO VISIBILITY.

KSZ001>006-013>018-027>032-041>047-020700-
NORTHWEST KANSAS

CITY           SKY/WX    TMP DP  RH WIND       PRES   REMARKS
GOODLAND       MOCLDY    49  46  90 N18       29.96F
6HR MIN TEMP:  49; 6HR MAX TEMP:  71; 6HR PCP:  0.01;

HAYS           PTCLDY    63  57  82 NE9       29.75S
HILL CITY      MOCLDY    59  50  72 NW15G24   29.83R
6HR MIN TEMP:  57; 6HR MAX TEMP:  75;

RUSSELL        CLEAR     63  60  90 N8        29.73F
6HR MIN TEMP:  62; 6HR MAX TEMP:  73;

$$

KSZ061>065-074>080-084>089-020700-
SOUTHWEST KANSAS

CITY           SKY/WX    TMP DP  RH WIND       PRES   REMARKS
DODGE CITY     CLEAR     61  58  90 E7        29.75S FOG
6HR MIN TEMP:  58; 6HR MAX TEMP:  76;

GARDEN CITY    CLOUDY    58  48  69 N31G38    29.85R
6HR MIN TEMP:  58; 6HR MAX TEMP:  75; 6HR PCP: TRACE;

GREAT BEND     CLEAR     63  59  88 E5        29.73F
LIBERAL        PTCLDY    63  52  67 E7        29.76S
PRATT          CLEAR     64  63  94 NE6       29.74F
$$

KSZ066>073-081>083-090>101-020700-
SOUTHEAST KANSAS

CITY           SKY/WX    TMP DP  RH WIND       PRES   REMARKS
CHANUTE        PTCLDY    74  69  85 S10       29.74R
6HR MIN TEMP:  73; 6HR MAX TEMP:  77;

COFFEYVILLE    CLEAR     76  70  82 S14       29.73S
6HR MIN TEMP:  76; 6HR MAX TEMP:  81;

HUTCHINSON     CLEAR     66  63  90 CALM      29.73R
6HR MIN TEMP:  66; 6HR MAX TEMP:  82;

MEDICINE LODGE   N/A     67  65  93 N3        29.71F
NEWTON         CLEAR     64  57  77 CALM      29.75R
PARSONS        LGT RAIN  74  70  87 S6        29.75S
6HR MIN TEMP:  73; 6HR MAX TEMP:  78; 6HR PCP:  0.04;

WICHITA INTL   PTCLDY    70  54  56 S7        29.72R
6HR MIN TEMP:  67; 6HR MAX TEMP:  87;

WICHITA JABRA  PTCLDY    74  63  68 S10       29.72S
6HR MIN TEMP:  67; 6HR MAX TEMP:  85;

WICHITA MCCONL PTCLDY    73  67  80 S12       29.73S
WINFIELD       LGT RAIN  71  64  78 S24G38    29.74S
6HR MIN TEMP:  69; 6HR MAX TEMP:  86; 6HR PCP:  0.01;

$$

KSZ007>012-019>026-033>040-048>060-102>105-020700-
NORTHEAST KANSAS

CITY           SKY/WX    TMP DP  RH WIND       PRES   REMARKS
CONCORDIA      PTCLDY    64  63  96 E5        29.74F
6HR MIN TEMP:  64; 6HR MAX TEMP:  75;

EMPORIA        CLEAR     67  65  93 NE6       29.72S
6HR MIN TEMP:  66; 6HR MAX TEMP:  75; 6HR PCP:  0.01;

LAWRENCE       MOCLDY    66  64  93 SE10      29.74F
6HR MIN TEMP:  65; 6HR MAX TEMP:  75; 6HR PCP:  0.63;

MANHATTAN      CLEAR     65  63  93 CALM      29.72F
6HR MIN TEMP:  65; 6HR MAX TEMP:  73; 6HR PCP: TRACE;

MARYSVILLE     PTCLDY    64  63  94 SE5       29.75S
OLATHE IND     MOCLDY    66  65  96 E8        29.76F
6HR MIN TEMP:  66; 6HR MAX TEMP:  69; 6HR PCP:  1.06;

OLATHE EXE     TSTM      66  65  96 E7        29.77F FOG
6HR MIN TEMP:  65; 6HR MAX TEMP:  69; 6HR PCP:  0.62;

SALINA         CLEAR     68  63  84 NE6       29.72F
6HR MIN TEMP:  67; 6HR MAX TEMP:  79;

TOPEKA BILLARD CLOUDY    68  67  96 CALM      29.74F
6HR MIN TEMP:  63; 6HR MAX TEMP:  79; 6HR PCP:  1.04;

TOPEKA FORBES  CLOUDY    68  65  90 E12       29.74F
6HR MIN TEMP:  67; 6HR MAX TEMP:  74;

$$



USA.gov is the U.S. government's official web portal to all federal, state and local government web resources and services.